Regional Weather Roundup
Issued by NWS Cleveland, OH

Home | Current Version | Previous Version | Graphics & Text | Print | Product List | Glossary On
Versions: 1 2 3 4 5 6 7 8 9 10 11 12 13 14 15 16 17 18 19 20 21 22 23 24 25 26 27 28 29 30 31 32 33 34 35 36 37 38 39 40 41 42 43 44 45 46 47 48 49 50
000
ASUS41 KCLE 240602
RWRCLE
OHIO REGIONAL WEATHER ROUNDUP
NATIONAL WEATHER SERVICE CLEVELAND, OH
100 AM EST FRI NOV 24 2017

NOTE: "FAIR" INDICATES FEW OR NO CLOUDS BELOW 12,000 FEET WITH NO
SIGNIFICANT WEATHER AND/OR OBSTRUCTIONS TO VISIBILITY.

OHZ001>008-015>018-024>027-034-035-043-044-240700-
   NORTHWEST OHIO

CITY           SKY/WX    TMP DP  RH WIND       PRES   REMARKS
DEFIANCE       CLOUDY    31  24  75 S7        29.96F WCI  24
FINDLAY        CLEAR     29  22  75 S9        29.96F WCI  20
TOLEDO EXPRESS CLEAR     33  27  78 SW7       29.95F WCI  27
TOLEDO EXEC    CLEAR     33  25  72 S10       29.96F WCI  25
LIMA           CLEAR     32  25  75 S8        29.97F WCI  25
$$

OHZ009>014-019>023-028>033-038-089-240700-
   NORTHEAST OHIO

CITY           SKY/WX    TMP DP  RH WIND       PRES   REMARKS
CLE-HOPKINS    CLEAR     35  25  66 S7        30.01F WCI  29
CLE-LAKEFRONT  CLEAR     37  24  59 S12       29.98F
CUY CO. ARPT   NOT AVBL
LORAIN-ELYRIA  CLEAR     31  22  69 S7        29.98F WCI  24
ASHTABULA      CLEAR     33  25  72 S7        29.99F WCI  27
AKRON-CANTON   CLEAR     28  20  71 S7        29.99F WCI  21
WOOSTER        CLEAR     29  23  78 S6        29.99F WCI  23
MANSFIELD      CLEAR     29  24  82 S6        29.98F WCI  23
YOUNGSTOWN     CLEAR     31  22  69 S7        29.99F WCI  24
$$

OHZ042-051>053-060>062-070>072-077>081-240700-
  SOUTHWEST OHIO

CITY           SKY/WX    TMP DP  RH WIND       PRES   REMARKS
CINC-COVINGTON CLEAR     30  25  81 S3        30.00S
CINC-LUNKEN    CLEAR     28  26  92 CALM      30.04S
HAMILTON       CLEAR     27  25  92 CALM      30.03S
DAYTON         CLOUDY    32  25  75 S6        30.01S WCI  26
WRIGHT-PAT AFB CLOUDY    29  23  78 CALM      30.01S
DAYTON GENERAL CLEAR     33  23  66 CALM      30.00S
WILMINGTON     CLOUDY    31  24  75 CALM      30.00F
$$

OHZ036-037-039>041-045>050-054>059-063>069-073>076-082>088-240700-
  CENTRAL AND SOUTHEAST OHIO

CITY           SKY/WX    TMP DP  RH WIND       PRES   REMARKS
COLUMBUS       CLEAR     29  25  85 E3        30.02F
OSU AIRPORT    CLOUDY    28  26  92 CALM      30.02S
BOLTON FIELD   CLEAR     26  23  88 CALM      30.02S
RICKENBACK AFB CLEAR     26  24  91 CALM      30.02S
NEWARK         CLEAR     26  22  84 CALM      30.02F
MARION         CLEAR     30  24  78 S9        30.00F WCI  22
LANCASTER      CLOUDY    24  22  91 CALM      30.02F
ZANESVILLE     CLEAR     25  20  81 CALM      30.03F
NEW PHILLY     NOT AVBL
$$




USA.gov is the U.S. government's official web portal to all federal, state and local government web resources and services.